www.pogodaiklimat.ru

Погода и климат >> Архив погоды >> Сенегал >> Кедугу


ПОГОДА в Кедугу

  • Прогноз погоды в Кедугу
  • Монитор погоды в Кедугу

АРХИВ ПОГОДЫ в Кедугу

Время (UTC), дата Ветер
(напр.,м/с)
 
Видим.   Явления Облачность Т
(С)
Тd
(С)
f
(%)
Тe
(С)
Тes
(С)
Комфортность P
(гПа)
Po
(гПа)
Тmin
(С)
Tmax
(С)
R
(мм)
R24
(мм)
S
(см)
00 14.04 штиль 0 10 км 5/0
[Ci sp]
+29.5 +8.4 27 +29 +29 жарко 1008.4 990.1
06 14.04 З 3 10 км 8/0
[Ci sp]
+26.0 +13.5 46 +28 +28 жарко 1008.5 990.1 +25.0
12 14.04 ЮВ 3 10 км ясно +37.5 +10.8 20 +36 +54 опасность
солнечного
удара
1010.0 991.7
18 14.04 СВ 3 10 км ясно +40.4 +10.9 17 +39 +40 очень
жарко
1005.9 987.3 +41.4
00 15.04 штиль 0 10 км 5/0
[Ci sp]
+31.0 +6.1 21 +29 +29 жарко 1008.2 989.9
06 15.04 З 3 10 км 8/0
[Ci sp]
+28.0 +13.0 40 +30 +30 жарко 1008.0 989.7 +27.0
12 15.04 З 2 10 км ясно +37.6 +12.2 22 +37 +58 опасность
солнечного
удара
1010.1 991.0
18 15.04 СВ 2 10 км ясно +41.0 +8.9 15 +39 +41 очень
жарко
1005.2 986.9 +33.0
00 16.04 Ю 1 10 км 4/0
[Ac trans]
+30.5 +8.2 25 +30 +30 жарко 1008.1 989.7
06 16.04 З 3 10 км 4/0
[Ci sp]
+28.0 +15.1 45 +31 +31 душно 1007.9 989.6 +27.0
12 16.04 СЗ 4 10 км ясно +37.2 +10.5 20 +36 +50 очень
жарко
1009.7 991.4
18 16.04 СВ 3 10 км 4/0
[Ac trans Ci sp]
+41.4 +12.2 18 +41 +42 опасность
перегрева
1004.8 986.6 +42.8
00 17.04 штиль 0 10 км 8/0
[Ac trans]
+33.0 +11.1 26 +33 +33 жарко 1006.6 988.4
06 17.04 З 3 10 км 8/0
[Ac trans]
+29.5 +9.2 28 +29 +29 жарко 1007.5 989.2 +28.0
12 17.04 З 4 10 км ясно +38.0 +7.6 16 +36 +50 очень
жарко
1009.1 990.9
18 17.04 штиль 0 10 км 6/0
[Ci sp]
+40.5 +9.7 16 +39 +41 очень
жарко
1005.2 986.9 +42.0
00 18.04 З 3 10 км 4/0
[Ci sp]
+34.6 +11.0 24 +34 +34 очень
жарко
1007.6 989.4
06 18.04 З 4 10 км 8/0
[Ac trans Ci sp]
+30.0 +13.6 37 +32 +32 жарко 1007.8 989.6 +29.5
12 18.04 СЗ 4 10 км ясно +37.2 +9.4 19 +36 +50 очень
жарко
1008.5 990.3
18 18.04 штиль 0 10 км 4/0
[Ci sp]
+41.6 +11.0 16 +40 +42 очень
жарко
1004.5 986.3 +42.4
00 19.04 штиль 0 10 км 9/0
[Ac trans]
+35.5 +10.1 21 +34 +34 очень
жарко
1006.2 988.0
06 19.04 З 4 10 км 5/0
[Ac trans Ci sp]
+30.0 +14.7 39 +32 +32 жарко 1007.5 989.3 +29.0
12 19.04 СЗ 4 10 км 8/0
[Ac trans Ci sp]
+37.6 +13.3 24 +38 +47 очень
жарко
1009.4 991.2
18 19.04 штиль 0 10 км 8/0
[Ci sp]
+41.5 +14.2 20 +42 +43 опасность
перегрева
1005.1 986.9 +42.5
00 20.04 СЗ 3 10 км 6/0
[Ci sp]
+34.5 +11.3 24 +34 +34 очень
жарко
1007.6 989.4
06 20.04 З 5 10 км 5/0
[Ci sp]
+28.0 +17.0 51 +32 +32 душно 1008.5 990.2 +27.0
12 20.04 ЮЗ 4 10 км ясно +37.0 +16.4 30 +39 +53 опасность
солнечного
удара
1009.6 991.4
18 20.04 штиль 0 10 км ясно +40.5 +14.5 22 +41 +43 опасность
перегрева
1005.3 987.0 +41.5

 

Местоположение метеостанции Кедугу (Сенегал): широта 12.57 долгота -12.21 высота над уровнем моря 167 м.

В архиве по умолчанию представлена погода в Кедугу за последнюю неделю. Архивные данные за месяц целиком и за предыдущие месяцы, начиная с января 2011 года, Вы можете получить, выбрав интересующий диапазон дат из раскрывающегося списка и нажав кнопку "Ввод!".


*Определитесь, кто Вы:
робот инопланетянин человек

Внимание! Время в таблицах - всемирное. Для получения местного времени необходимо прибавить поправку, которая равна 0 ч.

Смотрите также архив погоды в соседних городах и на ближайших метеорологических станциях:

Погода в Кеньебе (Мали) (111 км)
Погода в Кундаре (Гвинея) (141 км)
Погода в Фатото (Гамбия) (195 км)
Погода в Тамбакунде (Сенегал) (208 км)
Погода в Каесе (Мали) (223 км)
Погода в Бассе (Гамбия) (230 км)
Погода в Бафате (Гвинея-Биссау) (271 км)
Погода в Киндиа (Гвинея) (289 км)
Погода в Джорджтауне (Гамбия) (297 км)
Погода в Колде (Сенегал) (300 км)

Пояснения к столбцам:

Ветер - указаны скорость ветра в м/с - средняя за 10 мин, порывы в срок и между сроками (в фигурных скобках) и направление, откуда дует ветер: С - северный, СВ - северо-восточный, В - восточный, ЮВ - юго-восточный, Ю - южный, ЮЗ - юго-западный, З - западный, СЗ - северо-западный.
Видимость - горизонтальная дальность видимости в метрах или километрах. При видимости от 1 до 10 км при отсутствии осадков обычно наблюдается дымка, при ухудшении видимости до 1 км и менее - туман. В сухую погоду видимость может ухудшаться дымом, пылью или мглою.
Явления - указаны атмосферные явления, наблюдавшиеся в срок или в последний час перед сроком; фигурными скобками обозначены явления, наблюдавшиеся между сроками (за 1-3 часа до срока); квадратными скобками обозначены град или гололедные отложения с указанием их диаметра в мм.
Облачность - указаны через наклонную черту общая и нижняя облачность в баллах и высота нижней границы облаков в метрах; квадратными скобками обозначены формы облаков: Ci - перистые, Cs - перисто-слоистые, Cc - перисто-кучевые, Ac - высококучевые, As - высокослоистые, Sc - слоисто-кучевые, Ns - слоисто-дождевые, Cu - кучевые, Cb - кучево-дождевые. Подробнее классификацию облаков см. в Атласе облаков (PDF).
T - Температура воздуха - температура, измеренная на высоте 2 м над землей.
Td - Температура точки росы - температура, при понижении до которой содержащийся в воздухе водяной пар достигнет насыщения.
f - Относительная влажность воздуха - влажноcть воздуха, измеренная на высоте 2 м над землей.
Te - Эффективная температура - температура, которую ощущает одетый по сезону человек в тени. Характеристика душности погоды. При расчете учитывается влияние влажности воздуха и скорости ветра на теплоощущения человека.
Tes - Эффективная температура на солнце - температура, которую ощущает человек, с поправкой на солнечный нагрев. Характеристика знойности погоды. Зависит от высоты солнца над горизонтом, облачности и скорости ветра. Ночью, в пасмурную погоду, а также при ветре 12 м/с и более поправка равна нулю.
P - Атмосферное давление - приведенное к уровню моря атмосферное давление.
Po - Атмосферное давление - измеренное на уровне метеостанции атмосферное давление.
Tmin - Минимальная температура - минимум температуры воздуха на высоте 2 м над землей.
Tmax - Максимальная температура - максимум температуры воздуха на высоте 2 м над землей.
R - Количество осадков - Количество выпавших осадков за период времени, мм. При наведении курсора мыши на число - период времени, за который выпало указанное количество осадков.
R24 - Количество осадков - Количество выпавших осадков за 24 часа, мм.
S - Снежный покров - Высота снежного покрова, см. При наведении курсора мыши на число - состояние снежного покрова и степень покрытия местности в баллах.